Flag for Germany Weather past 2 weeks in Pfaffenhofen an der Ilm, Bavaria, Germany

Now
55 °F

Refreshingly cool.


Feels Like: 53 °F
Forecast: 33 / 58 °F
Wind: 8 mph from Southeast

Location: Ingolstadt Airport

Current Time: Apr 19, 2015 at 4:36:57 PM

Latest Report: Apr 19, 2015 at 3:20 PM


Visibility: 4 mi

Pressure: 30.09 "Hg

Humidity: 36%

Dew point: 28 °F

Location of Pfaffenhofen an der IlmLocation

Historic Weather in Pfaffenhofen an der Ilm — Graph

°F

Pfaffenhofen an der Ilm temperature yesterday

Maximum temperature yesterday: 52 °F (at 5:20 PM)
Minimum temperature yesterday: 36 °F (at 6:20 AM)
Average temperature yesterday: 45 °F

Past Weeks' High & Low Weather Summary

 TemperatureHumidityPressure
High73 °F (Apr 15, 4:20 PM)100% (Apr 7, 1:20 AM)30.60 "Hg (Apr 7, 1:20 AM)
Low25 °F (Apr 7, 5:20 AM)22% (Apr 15, 6:00 PM)29.86 "Hg (Apr 17, 5:20 AM)
Average48 °F64%30.23 "Hg
* Reported Apr 4 3:20 PM — Apr 19 3:20 PM, Pfaffenhofen an der Ilm, Weather by CustomWeather, © 2015

Note: Actual official high and low records may vary slightly from our data, if they occured in-between our weather recording intervals... More about our weather records

Advertising

Pfaffenhofen an der Ilm weather history for previous 24 hours

 ConditionsComfort  
Time TempWeatherWind HumidityBarometerVisibility
3:20 PM
Sun, Apr 19
55 °FRefreshingly cool.8 mph36%30.09 "Hg4 mi
2:20 PM55 °FRefreshingly cool.8 mph36%30.12 "Hg4 mi
1:20 PM52 °FCool.8 mph41%30.12 "Hg4 mi
12:20 PM52 °FCool.10 mph41%30.15 "Hg3 mi
11:20 AM50 °FCool.10 mph43%30.15 "Hg3 mi
10:20 AM48 °FCool.8 mph46%30.15 "Hg3 mi
9:20 AM43 °FQuite cool.8 mph61%30.15 "Hg3 mi
8:20 AM37 °FChilly.7 mph75%30.18 "Hg3 mi
7:20 AM34 °FChilly.7 mph81%30.15 "Hg3 mi
6:20 AM32 °FChilly.7 mph87%30.15 "Hg4 mi
5:20 AM32 °FChilly.6 mph87%30.15 "Hg3 mi
4:20 AM32 °FChilly.2 mph87%30.18 "Hg3 mi
3:20 AM32 °FChilly.1 mph87%30.21 "Hg3 mi
2:20 AM36 °FChilly.3 mph75%30.21 "Hg3 mi
1:20 AM37 °FChilly.2 mph75%30.21 "Hg3 mi
12:20 AM39 °FChilly.2 mph65%30.21 "Hg3 mi
11:20 PM
Sat, Apr 18
37 °FChilly.1 mph81%30.21 "Hg3 mi
10:20 PM41 °FQuite cool.2 mph61%30.21 "Hg3 mi
9:20 PM45 °FQuite cool.2 mph49%30.21 "Hg3 mi
8:20 PM46 °FCool.3 mph46%30.21 "Hg3 mi
7:20 PM50 °FPassing clouds.3 mph35%30.18 "HgN/A
6:20 PM52 °FPassing clouds.6 mph35%30.18 "HgN/A
5:20 PM52 °FCool.7 mph35%30.21 "Hg4 mi
4:20 PM50 °FScattered clouds.7 mph40%30.21 "HgN/A
4:00 PM50 °FScattered clouds.6 mph37%30.21 "HgN/A
Weather by CustomWeather, © 2015

See weather overviewHow to use our weather pages